Regional Weather Roundup
Issued by NWS

Home | Current Version | Previous Version | Text Only | Print | Product List | Glossary Off
Versions: 1 2 3 4 5 6 7 8 9 10 11 12 13 14 15 16 17 18 19 20 21 22 23 24 25 26 27 28 29 30 31 32 33 34 35 36 37 38 39 40 41 42 43 44 45 46 47 48 49 50

000
ASUS45 KBOU 190907
RWRCO

WEATHER ROUNDUP FOR COLORADO
NATIONAL WEATHER SERVICE DENVER/BOULDER CO
300 AM MDT SAT AUG 19 2017

NOTE: "FAIR" INDICATES FEW OR NO CLOUDS BELOW 12000 FEET WITH NO
SIGNIFICANT WEATHER AND/OR OBSTRUCTIONS TO VISIBILITY.

COZ001>005-013-030-031-191000-
...NORTHWEST COLORADO...

CITY           SKY/WX    TMP DP  RH WIND       PRES   REMARKS
CRAIG          FAIR      48  35  60 CALM      30.22S
HAYDEN         FAIR      55  35  47 E9        30.25S
MEEKER         FAIR      54  36  50 E5        30.24S
RABBIT EARS PA FAIR      52  30  43 W9        30.51F
STEAMBOAT SPGS FAIR      49  36  61 CALM      30.26F
WALDEN         FAIR      41  30  65 SE6       30.36S
$$

COZ006>008-011-191000-
...WEST CENTRAL VALLEYS...

CITY           SKY/WX    TMP DP  RH WIND       PRES   REMARKS
GRAND JUNCTION FAIR      66  33  29 E6        30.10R
MONTROSE       FAIR      61  39  44 SE8       30.19F
EAGLE          FAIR      52  31  44 SE5       30.29S
RIFLE          FAIR      58  33  39 CALM      30.18S
DELTA          FAIR      64  33  32 CALM      30.16S
NUCLA          FAIR      59  32  36 E7        30.23F
$$

COZ017>023-064>068-191000-
...SOUTHWEST COLORADO...

CITY           SKY/WX    TMP DP  RH WIND       PRES   REMARKS
DURANGO        FAIR      56  37  49 CALM      30.25S
CORTEZ         FAIR      50  37  61 E5        30.20F
PAGOSA SPRINGS FAIR      51  34  50 CALM      30.34S
TELLURIDE      FAIR      53  33  48 SE7       30.47F
WOLF CREEK PAS NOT AVBL
$$

COZ009-010-012-014-032>034-037-058>063-191000-
...CENTRAL COLORADO...

CITY           SKY/WX    TMP DP  RH WIND       PRES   REMARKS
ASPEN          FAIR      51  34  52 SW8       30.34S
BUENA VISTA    FAIR      51  36  56 NW7       30.38S
COPPER MTN     FAIR      54  23  30 W15       30.64S
BERTHOUD PASS  FAIR      43  37  81 NW23      30.66S
COTTONWOOD PAS FAIR      61  30  31 CALM      30.50S
GUNNISON       FAIR      45  37  73 CALM      30.39R
KREMMLING      FAIR      46  37  71 CALM      30.34R
LEADVILLE      FAIR      39  31  72 CALM      30.49S
SALIDA         FAIR      59  39  47 W3        30.41F
SUNLIGHT       FAIR      54  25  32 SW3       30.58F
WILKERSON PASS FAIR      50  32  50 SW8       30.62S
$$

COZ069>075-191000-
...SAN LUIS VALLEY/SANGRE DE CRISTO MOUNTAINS...

CITY           SKY/WX    TMP DP  RH WIND       PRES   REMARKS
ALAMOSA        FAIR      47  39  74 SE3       30.33S
DEL NORTE      FAIR      56  36  47 W13       30.36S
LA VETA PASS   NOT AVBL
SAGUACHE       FAIR      55  36  47 NW14      30.34F
$$

COZ035-036-038>040-191000-
...NORTHERN COLORADO FRONT RANGE...

CITY           SKY/WX    TMP DP  RH WIND       PRES   REMARKS
DENVER INTL AP FAIR      68  48  48 S13       30.11F
DMNS CITY PARK   N/A     65  46  49 SE7       30.11F
AURORA         CLEAR     68  48  48 S16       30.13F
FRONT RANGE AP FAIR      68  52  56 S14       30.13F
ERIE MUNI ARPT FAIR      56  48  74 CALM      30.15S
BOULDER MUN AP FAIR      63  45  51 NW3       30.10F
CENTENNIAL     FAIR      67  48  50 SE13      30.15F
BROOMFIELD     NOT AVBL
FORT COLLINS   FAIR      57  51  80 CALM      30.10S
LONGMONT       FAIR      56  48  74 NW3       30.11F
$$

COZ041-046-047-076>085-087-088-191000-
...PIKES PEAK/PALMER DIVIDE AND SOUTHERN FOOTHILLS...

CITY           SKY/WX    TMP DP  RH WIND       PRES   REMARKS
COLO. SPRINGS  FAIR      59  51  75 N6        30.22F
A. F. ACADEMY  FAIR      52  47  81 N7        30.24F
SCHRIEVER AFB  FAIR      60  51  72 NW6       30.22F
CHEYENNE MTN   FAIR      62  47  56 NW3       30.21F
ELLICOTT       NOT AVBL
FALCON         FAIR      55  49  80 W6        30.28S
FORT CARSON    FAIR      58  50  75 NW9       30.18F
LIMON          FAIR      52  52 100 CALM      30.16F
MONUMENT HILL  FAIR      55  50  82 S12       30.27F
CANON CITY     CLEAR     63  48  59 W8        30.16F
WALSENBURG     FAIR      61  43  51 W6        30.21S
TRINIDAD       FAIR      69  52  54 SW17      30.18S
$$

COZ042>045-048>051-090-091-191000-
...NORTHEAST COLORADO...

CITY           SKY/WX    TMP DP  RH WIND       PRES   REMARKS
GREELEY ARPT   FAIR      58  52  80 CALM      30.08S
AKRON          FAIR      65  53  65 S10       30.09F
BURLINGTON     FAIR      62  56  80 S10       30.10F
WRAY           NOT AVBL
YUMA           FAIR      61  45  55 S10       30.07F
STERLING       FAIR      59  54  82 W3        30.05F
HOLYOKE        FAIR      61  54  77 SW5       30.06S
FORT MORGAN    FAIR      62  49  63 CALM      30.10S
$$

COZ086-089-092>099-191000-
...SOUTHEAST COLORADO...

CITY           SKY/WX    TMP DP  RH WIND       PRES   REMARKS
PUEBLO         FAIR      62  54  74 N5        30.10F
LA JUNTA       FAIR      64  59  83 E7        30.08F
LAMAR          FAIR      63  60  90 E8        30.05F
SPRINGFIELD      N/A     62  62 100 SW7       30.11S
$$



USA.gov is the U.S. government's official web portal to all federal, state and local government web resources and services.